Location: *
(53.9002°N, 27.5624°E)
Time: 00:20:04
(UTC+00:00)

Cosmos 1634 Rocket - Pass Details

Date: 12 November 2019
Orbit: 959 x 993 km, 82.9° (Epoch: 05 December)

Event Time Altitude Azimuth Distance (km) Brightness Sun altitude
Rises 17:40:08 0° 348° (NNW) 3,682 7.3 -29.8°
Reaches altitude 10° 17:42:39 10° 348° (NNW) 2,726 6.6 -30.2°
Enters shadow 17:48:36 78° 303° (WNW) 991 4.0 -31.0°
